NE1NH Weather Reports


time (UTC)temp
C
wind
direction
speed
KPH
gust
KPH
rain 1hr
cm
rain 24hr
cm
rain mn
cm
humidity
%
barometer
mb
20260504223508 17 208 6.4 14.5 0.00 0.00 0.00 42 1007.9
20260504223026 18 181 6.4 12.9 0.00 0.00 0.00 40 1008.0
20260504222511 18 268 4.8 19.3 0.00 0.00 0.00 39 1007.9
20260504222010 18 182 6.4 19.3 0.00 0.00 0.00 38 1007.8
20260504221525 18 201 6.4 19.3 0.00 0.00 0.00 39 1007.8
20260504221005 18 227 3.2 14.5 0.00 0.00 0.00 38 1007.8
20260504220504 18 192 4.8 14.5 0.00 0.00 0.00 38 1007.7
20260504220020 18 219 3.2 14.5 0.00 0.00 0.00 37 1007.7
20260504215507 18 198 4.8 14.5 0.00 0.00 0.00 37 1007.8
20260504215007 18 254 1.6 11.3 0.00 0.00 0.00 37 1007.7
20260504214504 19 326 1.6 11.3 0.00 0.00 0.00 36 1007.7
20260504214004 19 278 3.2 11.3 0.00 0.00 0.00 36 1007.7
20260504213503 19 302 1.6 11.3 0.00 0.00 0.00 34 1007.7
20260504213006 20 201 3.2 19.3 0.00 0.00 0.00 33 1007.7
20260504212503 20 183 8.0 19.3 0.00 0.00 0.00 31 1007.6
20260504212004 20 250 9.7 19.3 0.00 0.00 0.00 31 1007.7
20260504211502 20 216 6.4 19.3 0.00 0.00 0.00 30 1007.6
20260504211002 20 232 11.3 19.3 0.00 0.00 0.00 29 1007.6
20260504210503 21 233 6.4 17.7 0.00 0.00 0.00 31 1007.7
20260504210007 21 256 6.4 16.1 0.00 0.00 0.00 30 1007.6
20260504205504 21 205 4.8 16.1 0.00 0.00 0.00 30 1007.6
20260504205000 21 227 6.4 17.7 0.00 0.00 0.00 30 1007.6
20260504204505 21 278 8.0 17.7 0.00 0.00 0.00 29 1007.6
20260504204003 21 263 6.4 14.5 0.00 0.00 0.00 29 1007.6
20260504203503 21 242 4.8 16.1 0.00 0.00 0.00 30 1007.6
20260504203003 21 256 6.4 16.1 0.00 0.00 0.00 30 1007.6
20260504202503 21 231 8.0 14.5 0.00 0.00 0.00 29 1007.6
20260504202003 22 240 6.4 16.1 0.00 0.00 0.00 29 1007.6
20260504201503 21 234 8.0 17.7 0.00 0.00 0.00 28 1007.6
20260504201007 21 244 9.7 17.7 0.00 0.00 0.00 30 1007.6
20260504200503 21 247 3.2 17.7 0.00 0.00 0.00 30 1007.7
20260504200010 21 240 9.7 17.7 0.00 0.00 0.00 29 1007.8
20260504195506 21 192 8.0 30.6 0.00 0.00 0.00 29 1007.7
20260504195002 21 215 16.1 30.6 0.00 0.00 0.00 28 1007.8
20260504194508 21 227 8.0 17.7 0.00 0.00 0.00 28 1007.9
20260504194004 21 228 6.4 12.9 0.00 0.00 0.00 28 1007.8
20260504193504 21 189 8.0 24.1 0.00 0.00 0.00 29 1007.9
20260504193010 21 235 9.7 24.1 0.00 0.00 0.00 29 1007.9
20260504192503 21 215 6.4 16.1 0.00 0.00 0.00 29 1007.9
20260504192007 21 225 8.0 27.4 0.00 0.00 0.00 30 1007.8
20260504191508 21 183 8.0 27.4 0.00 0.00 0.00 28 1007.8
20260504191003 21 261 14.5 25.7 0.00 0.00 0.00 28 1008.0
20260504190502 21 215 8.0 17.7 0.00 0.00 0.00 29 1007.8
20260504190009 21 240 6.4 24.1 0.00 0.00 0.00 28 1007.9
20260504185505 21 242 11.3 24.1 0.00 0.00 0.00 27 1008.1
20260504185002 21 234 9.7 27.4 0.00 0.00 0.00 27 1008.2
20260504184508 20 249 11.3 27.4 0.00 0.00 0.00 27 1008.2
20260504184004 21 253 8.0 19.3 0.00 0.00 0.00 27 1008.3
20260504183502 21 261 6.4 17.7 0.00 0.00 0.00 27 1008.3
20260504183005 21 240 11.3 17.7 0.00 0.00 0.00 26 1008.4
20260504182501 21 212 8.0 22.5 0.00 0.00 0.00 28 1008.4
20260504182001 21 232 9.7 24.1 0.00 0.00 0.00 26 1008.3
20260504181510 21 236 11.3 24.1 0.00 0.00 0.00 26 1008.5
20260504181002 21 249 11.3 24.1 0.00 0.00 0.00 27 1008.5
20260504180502 21 220 9.7 24.1 0.00 0.00 0.00 29 1008.5
20260504180010 21 250 9.7 20.9 0.00 0.00 0.00 25 1008.5
20260504175504 21 199 9.7 19.3 0.00 0.00 0.00 26 1008.5
20260504175004 20 267 8.0 24.1 0.00 0.00 0.00 27 1008.7
20260504174508 20 220 9.7 25.7 0.00 0.00 0.00 28 1008.7
20260504174007 20 277 11.3 32.2 0.00 0.00 0.00 28 1008.6
20260504173504 20 188 11.3 32.2 0.00 0.00 0.00 28 1008.8
20260504173008 20 225 9.7 22.5 0.00 0.00 0.00 27 1008.8
20260504172504 20 204 8.0 22.5 0.00 0.00 0.00 28 1008.9
20260504172001 20 192 9.7 20.9 0.00 0.00 0.00 29 1008.9
20260504171518 20 253 9.7 19.3 0.00 0.00 0.00 28 1008.8
20260504171003 19 237 9.7 30.6 0.00 0.00 0.00 28 1008.9
20260504170502 19 241 14.5 30.6 0.00 0.00 0.00 28 1008.7
20260504151004 17 240 12.9 30.6 0.00 0.00 0.00 33 1010.1
20260504150504 17 254 9.7 24.1 0.00 0.00 0.00 35 1010.1
20260504141004 16 267 9.7 20.9 0.00 0.00 0.00 36 1010.3
20260504140508 16 223 8.0 16.1 0.00 0.00 0.00 36 1010.3
20260504130508 13 277 4.8 11.3 0.00 0.00 0.00 46 1011.0
20260504110504 7 238 4.8 12.9 0.00 0.00 0.00 55 1011.1
20260504100504 -17 0.0 0.0 0.00 0.00 0.00 1011.1
20260504082004 7 233 1.6 4.8 0.00 0.00 0.00 53 1010.7
20260504081518 7 219 3.2 4.8 0.00 0.00 0.00 52 1010.7
20260504081004 7 234 3.2 4.8 0.00 0.00 0.00 52 1010.7
20260504080503 7 220 1.6 3.2 0.00 0.00 0.00 52 1010.7
20260504050507 7 236 3.2 6.4 0.00 0.00 0.00 47 1011.0
20260504045511 7 215 3.2 4.8 0.00 0.00 0.00 48 1010.9
20260504045008 7 217 3.2 4.8 0.00 0.00 0.00 47 1010.9
20260504044532 7 234 1.6 6.4 0.00 0.00 0.00 47 1010.9
20260504044004 7 234 3.2 6.4 0.00 0.00 0.00 47 1011.0
20260504043504 7 233 3.2 6.4 0.00 0.00 0.00 47 1010.9
20260504043017 7 231 3.2 12.9 0.00 0.00 0.00 47 1010.9
20260504042503 7 236 4.8 12.9 0.00 0.00 0.00 47 1010.9
20260504042004 7 259 4.8 12.9 0.00 0.00 0.00 47 1011.0
20260504041519 7 236 4.8 12.9 0.00 0.00 0.00 47 1010.9
20260504041008 7 237 4.8 8.0 0.00 0.00 0.00 47 1010.8
20260504040507 7 244 4.8 12.9 0.00 0.00 0.00 47 1010.8
20260504040025 7 234 4.8 12.9 0.00 0.00 0.00 47 1010.8
20260504035508 7 234 4.8 11.3 0.00 0.00 0.00 47 1010.9
20260504035008 7 234 6.4 11.3 0.00 0.00 0.00 47 1010.8
20260504034525 7 232 4.8 11.3 0.00 0.00 0.00 47 1010.6
20260504034007 7 216 3.2 9.7 0.00 0.00 0.00 47 1010.5
20260504033508 7 221 4.8 9.7 0.00 0.00 0.00 47 1010.6
20260504033028 7 214 3.2 11.3 0.00 0.00 0.00 47 1010.6
20260504032504 7 237 4.8 11.3 0.00 0.00 0.00 47 1010.6
20260504032007 7 231 4.8 9.7 0.00 0.00 0.00 47 1010.6
20260504031515 6 224 4.8 12.9 0.00 0.00 0.00 48 1010.6
20260504031006 6 235 4.8 12.9 0.00 0.00 0.00 48 1010.5
20260504030507 6 222 6.4 9.7 0.00 0.00 0.00 48 1010.4
20260504030028 6 231 4.8 11.3 0.00 0.00 0.00 49 1010.4
20260504025509 6 234 4.8 11.3 0.00 0.00 0.00 49 1010.3
20260504025007 6 224 4.8 9.7 0.00 0.00 0.00 51 1010.3
20260504024525 6 243 3.2 9.7 0.00 0.00 0.00 50 1010.2
20260504024004 6 212 3.2 4.8 0.00 0.00 0.00 53 1010.2
20260504023503 6 218 1.6 4.8 0.00 0.00 0.00 54 1010.2
20260504023009 6 194 3.2 4.8 0.00 0.00 0.00 54 1010.2
20260504022505 6 198 3.2 4.8 0.00 0.00 0.00 54 1010.1
20260504022004 6 192 3.2 4.8 0.00 0.00 0.00 54 1010.2
20260504021512 6 196 3.2 4.8 0.00 0.00 0.00 54 1010.2
20260504021005 6 193 1.6 3.2 0.00 0.00 0.00 54 1010.1
20260504020505 6 197 1.6 3.2 0.00 0.00 0.00 54 1010.1
20260504020018 6 196 1.6 3.2 0.00 0.00 0.00 53 1010.1
20260504015504 6 187 1.6 3.2 0.00 0.00 0.00 53 1010.1
20260504015007 6 187 1.6 3.2 0.00 0.00 0.00 52 1010.1
20260504014520 6 188 1.6 3.2 0.00 0.00 0.00 52 1010.0
20260504014011 6 190 1.6 3.2 0.00 0.00 0.00 52 1010.0
20260504013509 6 190 1.6 3.2 0.00 0.00 0.00 51 1010.0
20260504013004 7 186 1.6 3.2 0.00 0.00 0.00 50 1009.9
20260504012508 7 185 1.6 3.2 0.00 0.00 0.00 50 1009.8
20260504012006 7 180 1.6 3.2 0.00 0.00 0.00 49 1009.8
20260504011511 7 178 1.6 3.2 0.00 0.00 0.00 49 1009.7
20260504011005 7 176 1.6 3.2 0.00 0.00 0.00 48 1009.7
20260504010506 7 183 1.6 3.2 0.00 0.00 0.00 48 1009.6
20260504010021 7 184 1.6 3.2 0.00 0.00 0.00 48 1009.5
20260504005506 7 183 0.0 0.0 0.00 0.00 0.00 49 1009.5
20260504005007 7 188 0.0 0.0 0.00 0.00 0.00 48 1009.4
20260504004522 8 193 0.0 1.6 0.00 0.00 0.00 46 1009.5
20260504004011 8 200 0.0 1.6 0.00 0.00 0.00 46 1009.4
20260504003509 8 211 0.0 3.2 0.00 0.00 0.00 45 1009.4
20260504003026 8 222 1.6 3.2 0.00 0.00 0.00 45 1009.3
20260504002509 8 243 0.0 1.6 0.00 0.00 0.00 44 1009.3
20260504002007 8 244 0.0 3.2 0.00 0.00 0.00 42 1009.1
20260504001512 8 244 0.0 3.2 0.00 0.00 0.00 41 1009.1
20260504001004 8 246 1.6 4.8 0.00 0.00 0.00 40 1009.1
20260504000503 8 230 1.6 4.8 0.00 0.00 0.00 40 1009.0
20260504000016 8 224 1.6 8.0 0.00 0.00 0.00 39 1008.9
20260503235504 9 264 3.2 8.0 0.00 0.00 0.00 39 1008.9
20260503235007 9 255 1.6 6.4 0.00 0.00 0.00 38 1008.9
20260503234526 9 279 3.2 8.0 0.00 0.00 0.00 39 1009.0
20260503234006 9 240 3.2 11.3 0.00 0.00 0.00 39 1008.9
20260503233509 9 268 6.4 14.5 0.00 0.00 0.00 38 1008.9
20260503233021 10 252 1.6 14.5 0.00 0.00 0.00 38 1008.9
20260503232507 10 301 3.2 14.5 0.00 0.00 0.00 38 1008.8
20260503232007 10 271 3.2 16.1 0.00 0.00 0.00 37 1008.7
20260503231527 10 218 6.4 17.7 0.00 0.00 0.00 38 1008.8
20260503231013 10 260 9.7 17.7 0.00 0.00 0.00 36 1008.8
20260503230512 10 245 9.7 19.3 0.00 0.00 0.00 37 1008.7
20260503230012 10 278 8.0 19.3 0.00 0.00 0.00 37 1008.5
20260503225503 10 321 8.0 17.7 0.00 0.00 0.00 37 1008.6
20260503225003 10 264 8.0 17.7 0.00 0.00 0.00 36 1008.5
20260503224516 10 292 6.4 20.9 0.00 0.00 0.00 37 1008.3
20260503224004 10 292 11.3 19.3 0.00 0.00 0.00 36 1008.3